Terminal Aerodrome Forecast
Issued by NWS

Home | Current Version | Previous Version | Text Only | Print | Product List | Glossary On
Versions: 1 2 3 4 5 6 7 8 9 10 11 12 13 14 15 16 17
000
FTUS43 KAPX 070526
TAFMBL
TAF
KMBL 070526Z 0706/0806 21005KT P6SM SCT035 OVC040
     FM070700 32008KT 6SM -SHRA BR BKN009 OVC020
     FM071300 33012G18KT P6SM BKN018
     FM071600 34014G22KT P6SM FEW035
     FM072300 01008KT P6SM SKC
      AMD LTD TO CLD VIS AND WIND=

USA.gov is the U.S. government's official web portal to all federal, state and local government web resources and services.